[[{"header":{"parameterUnit":"m.s-1","parameterCategory":1,"la1":30.2991,"la2":30.254,"lo1":-89.0895,"lo2":-89.0444,"dy":0.0017,"dx":0.0017,"nx":28,"ny":28,"refTime":"2024-04-30T09:00:00:Z","depth":0,"parameterNumber":2,"parameterNumberName":"U-component_of_WINDS"},"data":[0,0,0,0,0,0,0,0,0,0,0,0,0,0,0,0,0,0,0,0,0,0,0,0,0,0,0,0,0,0,0,0,0,0,0,0,0,0,0,0,0,0,0,0,0,0,0,0,0,0,0,0,0,0,0,0,0,0,2.7054,2.7055,0,2.7125,2.7126,2.7127,2.7107,2.7106,2.7105,2.7103,2.7173,2.7176,2.7179,0,0,0,0,0,0,0,0,0,0,0,0,0,2.69,2.6903,2.7054,2.7055,2.7056,2.7125,2.7126,2.7127,2.7108,2.7106,2.7104,2.7103,2.7172,2.7175,2.7179,0,0,0,0,0,0,0,0,0,0,0,0,0,2.6968,2.6904,2.7054,2.7055,2.7056,2.7125,2.7126,2.7127,2.7108,2.7106,2.7104,2.7102,2.717,2.7175,2.718,2.7252,0,0,2.7194,2.7196,0,0,0,0,0,0,0,0,2.6964,2.6974,2.7054,2.7055,2.7056,2.7105,2.7097,2.7169,2.7109,2.7088,2.7103,2.7101,2.7152,2.7158,2.7176,2.7255,2.7258,2.7195,2.7198,2.72,2.7201,0,0,0,0,0,0,0,2.696,2.6971,2.7082,2.7055,2.7056,2.7051,2.7058,2.711,2.7131,2.709,2.7088,2.7097,2.7152,2.7171,2.7177,2.7259,2.7195,2.7199,2.7202,2.7204,2.7399,2.7402,0,0,0,0,0,0,2.6955,2.6967,2.708,2.7084,2.7004,2.7055,2.7063,2.7092,2.713,2.7134,2.7099,2.7096,2.7164,2.7172,2.718,2.7265,2.72,2.7204,2.7207,2.7397,2.74,2.7402,0,0,0,0,0,0,2.6951,2.6965,2.7077,2.7025,2.7039,2.706,2.7092,2.7094,2.7113,2.7137,2.7141,2.7115,2.7163,2.7173,2.7234,2.7267,2.7206,2.7211,2.7394,2.7398,2.7401,2.7437,0,0,0,0,0,0,2.6947,2.6964,2.6992,2.7026,2.7042,2.7131,2.7094,2.7097,2.7122,2.7119,2.7153,2.7157,2.7162,2.7227,2.7239,2.7273,2.7214,2.7391,2.7396,2.74,2.7433,2.7442,2.7449,0,0,0,0,0,2.6941,2.6999,2.6993,2.7007,2.7078,2.7133,2.7142,2.7147,2.7125,2.7153,2.7168,2.7156,2.7262,2.7233,2.7246,2.7282,2.7389,2.7395,2.74,2.743,2.744,2.7449,0,0,0,0,0,0,2.6966,2.7003,2.6998,2.7068,2.7098,2.713,2.7165,2.7158,2.7194,2.7189,2.7194,2.7202,2.7264,2.7279,2.7246,2.7353,2.7322,2.733,2.7341,2.7351,2.7358,2.7352,2.7218,0,0,0,0,0,2.6981,2.7023,2.7053,2.7112,2.7127,2.7144,2.7168,2.717,2.72,2.7212,2.7232,2.7261,2.7301,2.7327,2.7365,2.7436,2.7443,2.7467,2.7475,2.7482,2.7488,2.7525,2.7536,2.742,2.742,2.742,0,0,2.7009,2.7035,2.7061,2.7117,2.7141,2.7183,2.7154,2.7201,2.7232,2.7219,2.7277,2.7293,2.7326,2.7392,2.7422,2.7407,2.7522,2.7488,2.7493,2.7496,2.7532,2.7543,2.7553,2.7423,2.7423,2.7422,0,0,2.7083,2.7107,2.7159,2.7183,2.7219,2.7229,2.7242,2.7275,2.7285,2.7345,2.7335,2.7373,2.7442,2.7465,2.7486,2.757,2.7559,2.7582,2.7622,2.7659,2.7668,2.7676,2.7704,2.7715,2.7589,2.7589,2.7589,0,2.7113,2.7179,2.7186,2.7233,2.7258,2.7249,2.7301,2.7323,2.737,2.7386,2.7369,2.7455,2.7477,2.7548,2.7568,2.7586,2.7599,2.7577,2.7666,2.7675,2.7682,2.7709,2.772,2.7591,2.7591,2.7591,2.7591,0,2.7214,2.7259,2.7296,2.7342,2.7371,2.7421,2.7434,2.7462,2.7462,2.7474,2.7534,2.756,2.7603,2.762,2.762,2.7691,2.7681,2.7665,2.7633,2.7696,2.7721,2.7731,2.7595,2.7594,2.7593,2.7593,0,0,2.7303,2.7353,2.7366,2.7387,2.7426,2.7461,2.751,2.7553,2.7576,2.7609,2.7649,2.7708,2.7694,2.7718,2.7721,2.7753,2.7816,2.7734,2.7734,2.7746,2.7894,2.7904,2.7916,2.781,2.7812,2.7814,2.7891,0,2.7379,2.7465,2.7474,2.7551,2.7592,2.7585,2.7627,2.7656,2.7669,2.7705,2.7719,2.776,2.774,2.7754,2.7786,2.7802,2.7845,2.7796,2.7846,2.7848,2.7836,2.7929,2.794,2.8011,2.7901,2.7903,2.7904,0,2.7478,2.7514,2.7596,2.763,2.7648,2.7686,2.7725,2.7761,2.7792,2.78,2.7827,2.7825,2.7874,2.7843,2.791,2.7876,2.7898,2.7908,2.7911,2.7914,2.7878,2.7933,2.8034,2.8043,2.792,2.7918,2.7917,0,2.7533,2.7602,2.766,2.7678,2.7719,2.7746,2.7764,2.7794,2.7819,2.7854,2.787,2.791,2.7931,2.7962,2.7971,2.7947,2.8037,2.8007,2.8043,2.8043,2.806,2.8059,2.8164,2.8078,2.8078,2.8077,2.8077,0,2.7615,2.7665,2.7685,2.772,2.7776,2.7784,2.7839,2.7855,2.7882,2.792,2.7916,2.7951,2.7962,2.7999,2.8006,2.806,2.807,2.8076,2.8077,2.8075,2.8074,2.8087,2.8081,2.808,2.808,2.8079,2.8078,0,2.7684,2.77,2.7762,2.7797,2.7807,2.7846,2.7875,2.7908,2.7921,2.7969,2.798,2.8001,2.8044,2.8056,2.8108,2.8113,2.8175,2.8173,2.8165,2.8164,2.8199,2.8195,2.8314,2.833,2.8236,2.8236,2.8237,0,2.7734,2.7773,2.7812,2.7837,2.7857,2.7898,2.7924,2.7935,2.7961,2.8001,2.8029,2.8072,2.8107,2.8176,2.8195,2.8234,2.8231,2.8271,2.8237,2.8234,2.8229,2.8226,2.8229,2.8276,2.8277,2.8278,2.8278,0,2.7821,2.7828,2.7866,2.7907,2.7939,2.7972,2.8003,2.8024,2.8039,2.8069,2.8114,2.8141,2.8194,2.8236,2.8276,2.8294,2.8288,2.8289,2.83,2.8297,2.829,2.8292,2.8179,2.8286,2.8285,2.8285,2.8284,2.8284,2.7881,2.7914,2.7947,2.799,2.8015,2.8045,2.8078,2.8096,2.8133,2.8178,2.8182,2.823,2.8261,2.8314,2.8334,2.8371,2.8359,2.8375,2.8378,2.8381,2.8383,2.8286,2.8379,2.8379,2.8378,2.8378,2.8378,0,2.7966,2.7987,2.8027,2.8071,2.8105,2.8099,2.8133,2.8161,2.8204,2.8234,2.8268,2.8319,2.836,2.8383,2.8423,2.8449,2.8447,2.8459,2.8456,2.846,2.8392,2.8378,2.8459,2.8459,2.8459,2.8459,2.8459,2.8459,2.8014,2.807,2.808,2.8148,2.8169,2.8216,2.8236,2.8263,2.8287,2.8344,2.8379,2.8394,2.8421,2.8464,2.8501,2.8506,2.852,2.8533,2.8537,2.8473,2.8464,2.8456,2.8443,2.8537,2.8537,2.8601,2.8602,2.8602]},{"header":{"parameterUnit":"m.s-1","parameterCategory":1,"la1":30.2991,"la2":30.254,"lo1":-89.0895,"lo2":-89.0444,"dy":0.0017,"dx":0.0017,"nx":28,"ny":28,"refTime":"2024-04-30T09:00:00:Z","depth":0,"parameterNumber":3,"parameterNumberName":"V-component_of_WINDS"},"data":[0,0,0,0,0,0,0,0,0,0,0,0,0,0,0,0,0,0,0,0,0,0,0,0,0,0,0,0,0,0,0,0,0,0,0,0,0,0,0,0,0,0,0,0,0,0,0,0,0,0,0,0,0,0,0,0,0,0,2.4423,2.4425,0,2.4646,2.4649,2.4651,2.4699,2.4697,2.4695,2.4694,2.4925,2.4932,2.494,0,0,0,0,0,0,0,0,0,0,0,0,0,2.4038,2.4045,2.4423,2.4426,2.4428,2.4646,2.4649,2.4652,2.4699,2.4697,2.4695,2.4693,2.4922,2.4931,2.494,0,0,0,0,0,0,0,0,0,0,0,0,0,2.4228,2.4047,2.4422,2.4478,2.4485,2.4645,2.4649,2.4653,2.4699,2.4697,2.4694,2.4692,2.4919,2.493,2.4942,2.5063,0,0,2.4977,2.4982,0,0,0,0,0,0,0,0,2.4217,2.4242,2.4467,2.4474,2.4483,2.4642,2.4598,2.479,2.47,2.4618,2.4694,2.4691,2.4833,2.4851,2.4899,2.5074,2.5084,2.4978,2.4985,2.499,2.4993,0,0,0,0,0,0,0,2.4204,2.4233,2.4511,2.447,2.448,2.4492,2.4516,2.4635,2.4737,2.4625,2.4629,2.4655,2.4837,2.4887,2.4904,2.5087,2.4978,2.4988,2.4995,2.5,2.5372,2.5375,0,0,0,0,0,0,2.4181,2.4221,2.4504,2.4518,2.4341,2.4501,2.4528,2.4593,2.4736,2.4755,2.4656,2.4656,2.4869,2.4891,2.4913,2.5064,2.499,2.5001,2.5007,2.5369,2.5372,2.5376,0,0,0,0,0,0,2.4172,2.4205,2.4495,2.4371,2.4409,2.451,2.4583,2.4599,2.465,2.4759,2.4778,2.469,2.4868,2.4897,2.5025,2.5072,2.5006,2.5016,2.5365,2.537,2.5374,2.5367,0,0,0,0,0,0,2.4161,2.4202,2.4249,2.4371,2.4415,2.4603,2.4586,2.4605,2.467,2.4671,2.4795,2.4814,2.4868,2.5007,2.5036,2.5087,2.5025,2.5362,2.5367,2.5373,2.5363,2.537,2.5376,0,0,0,0,0,2.4147,2.4239,2.4251,2.4285,2.4476,2.4606,2.4631,2.4691,2.4673,2.4721,2.4791,2.481,2.5062,2.502,2.5053,2.5108,2.5359,2.5366,2.5372,2.536,2.5369,2.5376,0,0,0,0,0,0,2.4121,2.4256,2.4271,2.4405,2.4494,2.4614,2.4676,2.4699,2.4795,2.4792,2.4863,2.4891,2.5015,2.5074,2.5025,2.5232,2.521,2.5223,2.5189,2.5198,2.5205,2.5188,2.5035,0,0,0,0,0,2.413,2.4224,2.4337,2.4445,2.4488,2.4574,2.4633,2.4672,2.4767,2.4804,2.4884,2.4976,2.5076,2.514,2.5238,2.5371,2.5399,2.5425,2.5432,2.5437,2.5448,2.5522,2.5535,2.5398,2.5398,2.5397,0,0,2.4152,2.4237,2.4292,2.4442,2.4515,2.461,2.4606,2.4708,2.478,2.482,2.4946,2.5007,2.5114,2.5245,2.5307,2.5299,2.5492,2.5445,2.5448,2.5457,2.553,2.5543,2.5555,2.5402,2.5401,2.5401,0,0,2.4239,2.4313,2.441,2.4483,2.4593,2.465,2.4672,2.4789,2.4831,2.4958,2.499,2.5077,2.5248,2.5323,2.5383,2.5496,2.5517,2.5526,2.5562,2.5633,2.5644,2.5654,2.5695,2.5708,2.5537,2.5537,2.5537,0,2.4252,2.4398,2.4458,2.4558,2.4623,2.4662,2.4761,2.4829,2.4966,2.501,2.4998,2.5212,2.5287,2.5436,2.5463,2.5511,2.554,2.5513,2.5637,2.5648,2.5658,2.5698,2.5713,2.5537,2.5537,2.5537,2.5537,0,2.4408,2.4508,2.4573,2.4702,2.4774,2.4873,2.4949,2.5014,2.5046,2.5103,2.5232,2.5323,2.544,2.5477,2.551,2.5631,2.5622,2.5623,2.5602,2.5671,2.5709,2.5725,2.5538,2.5538,2.5538,2.5538,0,0,2.4487,2.4647,2.467,2.4729,2.4852,2.4931,2.5031,2.5144,2.5199,2.5291,2.5378,2.552,2.5521,2.559,2.5631,2.5693,2.5777,2.5687,2.569,2.57,2.5916,2.5914,2.5931,2.5791,2.5794,2.5796,2.5907,0,2.459,2.477,2.4826,2.4977,2.507,2.5108,2.5195,2.528,2.5336,2.5424,2.5486,2.5586,2.5579,2.5621,2.5684,2.5753,2.5821,2.5746,2.5872,2.5876,2.5845,2.5951,2.5951,2.6051,2.5922,2.5925,2.5926,0,2.4735,2.4828,2.4987,2.5097,2.5139,2.5216,2.5324,2.5406,2.5503,2.554,2.5615,2.565,2.5757,2.5728,2.5876,2.5823,2.5878,2.5919,2.5924,2.5939,2.5906,2.5969,2.6084,2.6099,2.5951,2.5949,2.5947,0,2.4777,2.4942,2.5059,2.5108,2.5239,2.5293,2.535,2.5445,2.5508,2.5602,2.5645,2.575,2.5808,2.5889,2.5951,2.5925,2.6093,2.607,2.6127,2.6125,2.6162,2.6159,2.6288,2.6196,2.6195,2.6195,2.6195,0,2.4887,2.4983,2.5079,2.5151,2.526,2.5323,2.5429,2.5488,2.5571,2.5656,2.5695,2.5773,2.5851,2.5939,2.5989,2.6104,2.613,2.6162,2.6174,2.6159,2.6155,2.6197,2.6192,2.6199,2.6198,2.6197,2.6197,0,2.4953,2.5021,2.5151,2.5263,2.5294,2.5369,2.5466,2.5537,2.5593,2.5699,2.5728,2.5817,2.5923,2.5993,2.6129,2.6163,2.6288,2.6298,2.6255,2.6261,2.6313,2.6308,2.6474,2.6499,2.6389,2.639,2.6391,0,2.5018,2.5093,2.5213,2.5272,2.5329,2.5423,2.5488,2.5553,2.5619,2.5734,2.5791,2.5899,2.5989,2.6157,2.6234,2.6338,2.6352,2.6403,2.6368,2.635,2.6353,2.6348,2.6356,2.6409,2.641,2.641,2.6411,0,2.5128,2.5158,2.5249,2.5352,2.5428,2.5513,2.5598,2.5644,2.5723,2.5795,2.5904,2.5973,2.6111,2.6218,2.6329,2.6388,2.6413,2.6421,2.644,2.6426,2.6397,2.6414,2.627,2.6417,2.6417,2.6416,2.6416,2.6416,2.5197,2.5264,2.5359,2.5459,2.5529,2.5607,2.5679,2.5744,2.5835,2.5951,2.5984,2.6097,2.6191,2.6342,2.6403,2.6493,2.6487,2.6514,2.6522,2.6527,2.6528,2.6382,2.6513,2.6513,2.6513,2.6513,2.6513,0,2.5309,2.5371,2.5462,2.5579,2.5657,2.5672,2.5766,2.5831,2.593,2.6015,2.6102,2.6226,2.633,2.6414,2.6521,2.6576,2.659,2.6602,2.6599,2.6613,2.6526,2.65,2.6589,2.6589,2.6589,2.6589,2.6589,2.6589,2.5376,2.5491,2.5531,2.5681,2.5743,2.5853,2.5906,2.5978,2.6046,2.6182,2.6268,2.6321,2.6407,2.652,2.6615,2.6637,2.6675,2.6685,2.6709,2.6627,2.6619,2.6611,2.6586,2.6692,2.6692,2.6789,2.679,2.679]}]]